TimeEST,TemperatureF,Dew PointF,Humidity,Sea Level PressureIn,VisibilityMPH,Wind Direction,Wind SpeedMPH,Gust SpeedMPH,PrecipitationIn,Events,Conditions,WindDirDegrees,DateUTC
12:54 AM,48.0,34.0,58,30.11,10.0,North,8.1,-,N/A,,Clear,360,2013-11-08 05:54:00
1:54 AM,48.0,34.0,58,30.13,10.0,North,12.7,19.6,N/A,,Clear,350,2013-11-08 06:54:00
2:54 AM,46.0,34.0,63,30.16,10.0,NNW,5.8,-,N/A,,Clear,340,2013-11-08 07:54:00
3:54 AM,44.1,34.0,68,30.18,10.0,North,5.8,-,N/A,,Clear,350,2013-11-08 08:54:00
4:54 AM,42.1,33.1,70,30.21,10.0,North,3.5,-,N/A,,Clear,350,2013-11-08 09:54:00
5:54 AM,39.9,33.1,77,30.23,10.0,North,3.5,-,N/A,,Clear,360,2013-11-08 10:54:00
6:54 AM,37.9,32.0,79,30.25,10.0,Calm,Calm,-,N/A,,Clear,0,2013-11-08 11:54:00
7:54 AM,44.1,33.1,65,30.27,10.0,North,3.5,-,N/A,,Clear,10,2013-11-08 12:54:00
8:54 AM,48.9,30.9,50,30.29,10.0,North,10.4,-,N/A,,Clear,10,2013-11-08 13:54:00
9:54 AM,53.1,28.0,38,30.29,10.0,North,12.7,17.3,N/A,,Clear,360,2013-11-08 14:54:00
10:54 AM,55.0,27.0,34,30.30,10.0,North,15.0,20.7,N/A,,Clear,360,2013-11-08 15:54:00
11:54 AM,57.0,28.0,33,30.27,10.0,North,9.2,-,N/A,,Clear,360,2013-11-08 16:54:00
12:54 PM,60.1,26.1,27,30.24,10.0,NW,9.2,19.6,N/A,,Clear,310,2013-11-08 17:54:00
1:54 PM,61.0,24.1,24,30.21,10.0,NW,6.9,-,N/A,,Clear,320,2013-11-08 18:54:00
2:54 PM,62.1,24.1,23,30.21,10.0,North,11.5,-,N/A,,Clear,10,2013-11-08 19:54:00
3:54 PM,60.1,23.0,24,30.22,10.0,NNW,11.5,-,N/A,,Clear,340,2013-11-08 20:54:00
4:54 PM,57.0,25.0,29,30.25,10.0,NNW,5.8,-,N/A,,Clear,340,2013-11-08 21:54:00
5:54 PM,45.0,34.0,65,30.26,10.0,Calm,Calm,-,N/A,,Clear,0,2013-11-08 22:54:00
6:54 PM,43.0,36.0,76,30.28,10.0,Calm,Calm,-,N/A,,Clear,0,2013-11-08 23:54:00
7:54 PM,41.0,34.0,76,30.28,10.0,Calm,Calm,-,N/A,,Clear,0,2013-11-09 00:54:00
8:54 PM,36.0,33.1,89,30.31,10.0,Calm,Calm,-,N/A,,Clear,0,2013-11-09 01:54:00
9:54 PM,37.0,34.0,89,30.32,10.0,Calm,Calm,-,N/A,,Clear,0,2013-11-09 02:54:00
10:54 PM,35.1,33.1,92,30.32,10.0,Calm,Calm,-,N/A,,Clear,0,2013-11-09 03:54:00
11:54 PM,34.0,33.1,96,30.33,10.0,Calm,Calm,-,N/A,,Clear,0,2013-11-09 04:54:00